This is the latest recevied weather packets stored in our database for station/object IN3XSV-13. If no packets are shown the sender has not sent any weather packets the latest 10 day(s).
| Time | Temp. | Humidity | Pressure | Rain* | Wind** | Luminosity | Snow |
|---|---|---|---|---|---|---|---|
| 1777382646 | 17.78° C | 71% | 9955 hPa | 0 mm | - | - | - |
| 1777382346 | 17.78° C | 70% | 9955 hPa | 0 mm | - | - | - |
| 1777382046 | 18.33° C | 70% | 9954.9 hPa | 0 mm | - | - | - |
| 1777381746 | 18.33° C | 69% | 9954.9 hPa | 0 mm | - | - | - |
| 1777381446 | 18.89° C | 67% | 9955 hPa | 0 mm | - | - | - |
| 1777381146 | 18.89° C | 69% | 9955.1 hPa | 0 mm | - | - | - |
| 1777380846 | 18.89° C | 69% | 9955 hPa | 0 mm | - | - | - |
| 1777380546 | 18.89° C | 70% | 9955 hPa | 0 mm | - | - | - |
| 1777380246 | 18.33° C | 70% | 9955 hPa | 0.51 mm | - | - | - |
| 1777379946 | 18.33° C | 72% | 9955 hPa | 0.51 mm | - | - | - |
| 1777379646 | 17.78° C | 73% | 9955.1 hPa | 0.51 mm | - | - | - |
| 1777379346 | 17.78° C | 74% | 9955 hPa | 0.51 mm | - | - | - |
| 1777379046 | 17.78° C | 73% | 9955.1 hPa | 0.51 mm | - | - | - |
| 1777378746 | 17.78° C | 73% | 9955.1 hPa | 0.51 mm | - | - | - |
| 1777378446 | 17.22° C | 73% | 9955 hPa | 0.51 mm | - | - | - |
| 1777378146 | 17.22° C | 72% | 9955.2 hPa | 0.51 mm | - | - | - |
| 1777377846 | 17.22° C | 72% | 9955.1 hPa | 0.51 mm | - | - | - |
| 1777377546 | 17.22° C | 72% | 9955.1 hPa | 0.51 mm | - | - | - |
| 1777377246 | 17.22° C | 73% | 9955.1 hPa | 0.51 mm | - | - | - |
| 1777376946 | 17.22° C | 72% | 9955.2 hPa | 0 mm | - | - | - |
| 1777376646 | 17.22° C | 69% | 9955.3 hPa | 0 mm | - | - | - |
| 1777376346 | 17.78° C | 67% | 9955.2 hPa | 0 mm | - | - | - |
| 1777376046 | 17.78° C | 65% | 9955.2 hPa | 0 mm | - | - | - |
| 1777375746 | 18.33° C | 64% | 9955.1 hPa | 0 mm | - | - | - |
| 1777375446 | 18.33° C | 64% | 9955.1 hPa | 0 mm | - | - | - |
* Rain latest hour (hover to see other rain measurements)
** Current wind speed in m/s (hover to see current wind gust speed)